TimePDT,TemperatureF,Dew PointF,Humidity,Sea Level PressureIn,VisibilityMPH,Wind Direction,Wind SpeedMPH,Gust SpeedMPH,PrecipitationIn,Events,Conditions,WindDirDegrees,DateUTC
12:15 AM,57.2,57.2,100,30.01,8.0,Calm,Calm,-,0.00,,Clear,0,2013-08-05 07:15:00
12:35 AM,57.2,57.2,100,30.00,10.0,Calm,Calm,-,0.00,,Clear,0,2013-08-05 07:35:00
12:55 AM,57.2,57.2,100,30.00,10.0,SSE,3.5,-,0.00,,Clear,150,2013-08-05 07:55:00
1:15 AM,55.4,55.4,100,30.00,10.0,Calm,Calm,-,0.00,,Clear,0,2013-08-05 08:15:00
1:35 AM,55.4,55.4,100,30.00,9.0,Calm,Calm,-,0.00,,Clear,0,2013-08-05 08:35:00
1:55 AM,55.4,55.4,100,30.00,10.0,Calm,Calm,-,0.00,,Clear,0,2013-08-05 08:55:00
2:15 AM,55.4,55.4,100,30.00,9.0,South,3.5,-,0.00,,Clear,170,2013-08-05 09:15:00
2:35 AM,55.4,55.4,100,30.00,10.0,SSE,4.6,-,0.00,,Clear,150,2013-08-05 09:35:00
2:55 AM,55.4,55.4,100,30.00,10.0,South,4.6,-,0.00,,Clear,170,2013-08-05 09:55:00
3:15 AM,53.6,53.6,100,30.00,10.0,Calm,Calm,-,0.00,,Clear,0,2013-08-05 10:15:00
3:35 AM,53.6,53.6,100,30.00,8.0,Calm,Calm,-,0.00,,Clear,0,2013-08-05 10:35:00
3:55 AM,53.6,53.6,100,30.00,5.0,Calm,Calm,-,0.00,,Clear,0,2013-08-05 10:55:00
4:15 AM,51.8,51.8,100,30.00,8.0,SSW,3.5,-,0.00,,Clear,210,2013-08-05 11:15:00
4:35 AM,53.6,53.6,100,30.00,10.0,SSW,3.5,-,0.00,,Clear,200,2013-08-05 11:35:00
4:55 AM,51.8,51.8,100,30.00,9.0,SSW,4.6,-,0.00,,Clear,210,2013-08-05 11:55:00
5:15 AM,53.6,53.6,100,30.01,10.0,Calm,Calm,-,0.00,,Clear,0,2013-08-05 12:15:00
5:35 AM,51.8,51.8,100,30.01,8.0,South,3.5,-,0.00,,Clear,180,2013-08-05 12:35:00
5:55 AM,51.8,51.8,100,30.01,3.0,SSW,3.5,-,0.00,,Clear,210,2013-08-05 12:55:00
6:15 AM,51.8,51.8,100,30.02,2.0,SSW,3.5,-,0.00,,Mostly Cloudy,210,2013-08-05 13:15:00
6:35 AM,51.8,51.8,100,30.02,2.5,South,3.5,-,0.00,,Overcast,180,2013-08-05 13:35:00
6:55 AM,51.8,51.8,100,30.03,1.2,South,3.5,-,0.00,,Overcast,190,2013-08-05 13:55:00
7:15 AM,51.8,51.8,100,30.03,0.2,South,4.6,-,0.00,,Overcast,170,2013-08-05 14:15:00
7:35 AM,51.8,51.8,100,30.03,0.2,South,4.6,-,0.00,,Overcast,190,2013-08-05 14:35:00
7:55 AM,53.6,53.6,100,30.04,0.2,South,3.5,-,0.00,,Overcast,180,2013-08-05 14:55:00
8:15 AM,53.6,53.6,100,30.04,0.2,SSW,3.5,-,0.00,,Overcast,210,2013-08-05 15:15:00
8:35 AM,53.6,53.6,100,30.04,0.2,Calm,Calm,-,0.00,,Overcast,0,2013-08-05 15:35:00
8:55 AM,53.6,53.6,100,30.04,0.2,Calm,Calm,-,0.00,,Overcast,0,2013-08-05 15:55:00
9:15 AM,55.4,55.4,100,30.04,1.2,SSE,3.5,-,0.00,,Overcast,160,2013-08-05 16:15:00
9:35 AM,55.4,55.4,100,30.04,5.0,SSE,3.5,-,0.00,,Overcast,160,2013-08-05 16:35:00
9:55 AM,57.2,57.2,100,30.04,10.0,South,4.6,-,0.00,,Mostly Cloudy,180,2013-08-05 16:55:00
10:15 AM,60.8,59.0,94,30.04,10.0,SSW,5.8,-,0.00,,Partly Cloudy,210,2013-08-05 17:15:00
10:35 AM,62.6,60.8,94,30.04,10.0,SSW,4.6,-,0.00,,Clear,210,2013-08-05 17:35:00
10:55 AM,64.4,60.8,88,30.04,10.0,SSW,5.8,-,0.00,,Clear,200,2013-08-05 17:55:00
11:15 AM,66.2,60.8,83,30.04,10.0,SW,4.6,-,0.00,,Clear,220,2013-08-05 18:15:00
11:35 AM,69.8,62.6,78,30.03,10.0,South,5.8,-,0.00,,Clear,190,2013-08-05 18:35:00
11:55 AM,69.8,62.6,78,30.03,9.0,South,5.8,-,0.30,,Clear,170,2013-08-05 18:55:00
12:15 PM,71.6,62.6,73,30.03,10.0,South,3.5,-,0.00,,Clear,170,2013-08-05 19:15:00
12:35 PM,73.4,64.4,73,30.02,9.0,SSE,3.5,-,0.00,,Clear,150,2013-08-05 19:35:00
12:55 PM,73.4,64.4,73,30.02,5.0,SSW,4.6,-,0.00,,Clear,200,2013-08-05 19:55:00
1:15 PM,75.2,64.4,69,30.01,8.0,SSW,6.9,-,0.00,,Clear,210,2013-08-05 20:15:00
1:35 PM,77.0,64.4,65,30.01,10.0,North,3.5,-,0.00,,Clear,350,2013-08-05 20:35:00
1:55 PM,77.0,62.6,61,30.01,10.0,West,6.9,-,0.00,,Clear,280,2013-08-05 20:55:00
2:15 PM,77.0,62.6,61,30.00,10.0,West,6.9,-,0.00,,Clear,270,2013-08-05 21:15:00
2:35 PM,77.0,62.6,61,30.00,10.0,WNW,6.9,-,0.00,,Clear,290,2013-08-05 21:35:00
2:55 PM,77.0,62.6,61,30.00,10.0,West,8.1,-,0.00,,Clear,260,2013-08-05 21:55:00
3:15 PM,78.8,62.6,57,30.00,10.0,West,5.8,-,0.00,,Clear,280,2013-08-05 22:15:00
3:35 PM,78.8,62.6,57,29.99,10.0,WNW,6.9,-,0.00,,Clear,290,2013-08-05 22:35:00
3:55 PM,78.8,62.6,57,29.99,10.0,West,6.9,-,0.00,,Clear,280,2013-08-05 22:55:00
4:15 PM,78.8,62.6,57,29.98,10.0,West,5.8,-,0.00,,Clear,270,2013-08-05 23:15:00
4:35 PM,77.0,60.8,57,29.98,10.0,WSW,5.8,-,0.00,,Clear,250,2013-08-05 23:35:00
4:55 PM,78.8,62.6,57,29.97,10.0,WNW,6.9,-,0.00,,Clear,290,2013-08-05 23:55:00
5:15 PM,77.0,62.6,61,29.97,10.0,WNW,5.8,-,0.00,,Clear,290,2013-08-06 00:15:00
5:35 PM,77.0,60.8,57,29.96,10.0,West,5.8,-,0.00,,Clear,270,2013-08-06 00:35:00
5:55 PM,77.0,60.8,57,29.96,10.0,West,5.8,-,0.00,,Clear,280,2013-08-06 00:55:00
6:15 PM,75.2,62.6,65,29.96,10.0,WSW,4.6,-,0.00,,Clear,250,2013-08-06 01:15:00
6:35 PM,73.4,62.6,69,29.95,10.0,SW,5.8,-,0.00,,Clear,230,2013-08-06 01:35:00
6:55 PM,71.6,59.0,64,29.95,10.0,SW,6.9,-,0.00,,Clear,220,2013-08-06 01:55:00
7:35 PM,69.8,55.4,60,29.96,10.0,SSW,5.8,-,0.00,,Clear,210,2013-08-06 02:35:00
7:55 PM,66.2,55.4,68,29.96,10.0,SW,6.9,-,0.00,,Clear,220,2013-08-06 02:55:00
8:15 PM,64.4,57.2,77,29.96,9.0,SW,3.5,-,0.00,,Clear,230,2013-08-06 03:15:00
8:35 PM,62.6,55.4,77,29.96,10.0,South,3.5,-,0.00,,Clear,190,2013-08-06 03:35:00
8:55 PM,62.6,57.2,82,29.97,10.0,SSW,3.5,-,0.00,,Clear,200,2013-08-06 03:55:00
9:15 PM,59.0,55.4,88,29.97,10.0,SSW,5.8,-,0.00,,Clear,200,2013-08-06 04:15:00
9:35 PM,57.2,53.6,88,29.97,10.0,SSW,5.8,-,0.00,,Clear,200,2013-08-06 04:35:00
9:55 PM,55.4,53.6,94,29.98,10.0,SSW,6.9,-,0.00,,Clear,210,2013-08-06 04:55:00
10:15 PM,55.4,53.6,94,29.98,10.0,SSW,3.5,-,0.00,,Clear,200,2013-08-06 05:15:00
10:35 PM,55.4,53.6,94,29.98,10.0,South,4.6,-,0.00,,Clear,180,2013-08-06 05:35:00
10:55 PM,55.4,53.6,94,29.98,10.0,South,4.6,-,0.00,,Clear,190,2013-08-06 05:55:00
11:15 PM,55.4,53.6,94,29.98,10.0,South,5.8,-,0.00,,Clear,190,2013-08-06 06:15:00
11:35 PM,53.6,53.6,100,29.98,10.0,SSW,5.8,-,0.00,,Clear,200,2013-08-06 06:35:00
11:55 PM,53.6,53.6,100,29.98,10.0,South,3.5,-,0.00,,Clear,180,2013-08-06 06:55:00